Cork, Ireland

9:38 AM GMT on February 21, 2018 (GMT +0000)
Cork

Weather History for EICK - September, 2011

Change the Weather History Date:

Wednesday, September 21, 2011

  Actual Average Record
Temperature  
Mean Temperature 52 °F -  
Max Temperature 59 °F 58 °F 70 °F (2013)
Min Temperature 46 °F 47 °F 46 °F (2011)
Degree Days  
Heating Degree Days 12    
Growing Degree Days 2 (Base 50)    
Moisture  
Dew Point 51 °F    
Average Humidity 93    
Maximum Humidity 100    
Minimum Humidity 77    
Precipitation  
Precipitation 0.01 in 0.15 in - ()
Sea Level Pressure  
Sea Level Pressure 29.96 in    
Wind  
Wind Speed 12 mph ()    
Max Wind Speed 22 mph    
Max Gust Speed 36 mph    
Visibility 6.5 miles    
Events Rain    
Averages and records for this station are not official NWS values.
T = Trace of Precipitation, MM = Missing Value Source: Averaged Metar Reports

Daily Weather History Graph

Daily Weather History Graph

Search for Another Location

Airport or City:

Trip Planner

Search our weather history database for the weather conditions in past years. The results will help you decide how hot, cold, wet, or windy it might be!

Date:

Astronomy

Sep. 21, 2011 Rise Set
Actual Time 7:17 AM IST 7:35 PM IST
Civil Twilight 6:43 AM IST 8:09 PM IST
Nautical Twilight 6:03 AM IST 8:48 PM IST
Astronomical Twilight 5:22 AM IST 9:30 PM IST
Moon No Moon Rise 4:16 PM IST
Length of Visible Light 13h 25m
Length of Day
12h 17m
Last Quarter, 41% of the Moon is Illuminated
Sep 21
Last Quarter
Sep 27
New
Oct 4
First Quarter
Oct 12
Full
Oct 20
Last Quarter

Hourly Weather History & Observations

Time (IST) Temp. Windchill Dew Point Humidity Pressure Visibility Wind Dir Wind Speed Gust Speed Precip Events Conditions
12:00 AM 46.4 °F 42.9 °F 46.4 °F 100% 30.01 in 6.2 mi SW 6.9 mph - N/A   Scattered Clouds
12:30 AM 48.2 °F - 48.2 °F 100% 30.01 in 6.2 mi SW 10.4 mph - N/A   Scattered Clouds
1:00 AM 48 °F - 48 °F 99% 30.02 in 22 mi SW 8.9 mph - -   Partly Cloudy
1:00 AM 48.2 °F - 48.2 °F 100% 30.01 in 6.2 mi SW 9.2 mph - N/A   Scattered Clouds
1:30 AM 48.2 °F - 48.2 °F 100% 29.98 in 6.2 mi SW 11.5 mph - N/A   Scattered Clouds
2:00 AM 46.4 °F 42.4 °F 46.4 °F 100% 30.01 in 6.2 mi SW 8.1 mph - N/A   Partly Cloudy
2:30 AM 48.2 °F - 48.2 °F 100% 29.98 in 6.2 mi SW 8.1 mph - N/A   Mostly Cloudy
3:00 AM 46.4 °F 42.4 °F 46.4 °F 100% 29.98 in 6.2 mi SW 8.1 mph - N/A   Scattered Clouds
3:30 AM 48.2 °F - 48.2 °F 100% 29.98 in 6.2 mi SSW 9.2 mph - N/A   Mostly Cloudy
4:00 AM 50.0 °F - 50.0 °F 100% 29.95 in 6.2 mi SW 13.8 mph - N/A   Mostly Cloudy
4:30 AM 51.8 °F - 50.0 °F 94% 29.95 in 6.2 mi SW 10.4 mph - N/A Rain Light Rain Showers
5:00 AM 51.8 °F - 50.0 °F 94% 29.95 in 6.2 mi SW 11.5 mph - N/A   Mostly Cloudy
5:30 AM 50.0 °F - 48.2 °F 94% 29.95 in 6.2 mi SW 15.0 mph - N/A   Partly Cloudy
6:00 AM 50.0 °F - 48.2 °F 94% 29.95 in 6.2 mi SW 11.5 mph - N/A   Partly Cloudy
6:30 AM 50.0 °F - 48.2 °F 94% 29.95 in 6.2 mi SSW 9.2 mph - N/A   Partly Cloudy
7:00 AM 49 °F - 49 °F 100% 29.96 in 16 mi SW 11.2 mph - -   Partly Cloudy
7:00 AM 50.0 °F - 50.0 °F 100% 29.95 in 6.2 mi SW 11.5 mph - N/A   Mostly Cloudy
7:30 AM 50.0 °F - 50.0 °F 100% 29.95 in 6.2 mi SW 13.8 mph - N/A   Mostly Cloudy
8:00 AM 51.8 °F - 50.0 °F 94% 29.92 in 6.2 mi SW 17.3 mph - N/A   Mostly Cloudy
8:30 AM 51.8 °F - 50.0 °F 94% 29.92 in 6.2 mi SW 18.4 mph - N/A   Scattered Clouds
9:00 AM 53.6 °F - 50.0 °F 88% 29.92 in 6.2 mi SW 19.6 mph - N/A   Mostly Cloudy
9:30 AM 53.6 °F - 51.8 °F 94% 29.92 in 6.2 mi SW 17.3 mph - N/A   Mostly Cloudy
10:00 AM 53.6 °F - 51.8 °F 94% 29.92 in 6.2 mi SW 17.3 mph - N/A   Mostly Cloudy
10:30 AM 53.6 °F - 51.8 °F 94% 29.92 in 6.2 mi SW 16.1 mph - N/A   Mostly Cloudy
11:00 AM 53.6 °F - 53.6 °F 100% 29.92 in 6.2 mi WSW 17.3 mph - N/A   Scattered Clouds
11:30 AM 55.4 °F - 51.8 °F 88% 29.92 in 6.2 mi WSW 18.4 mph 31.1 mph N/A   Mostly Cloudy
12:00 PM 57.2 °F - 51.8 °F 82% 29.92 in 6.2 mi WSW 18.4 mph 29.9 mph N/A   Mostly Cloudy
12:30 PM 57.2 °F - 50.0 °F 77% 29.92 in 6.2 mi WSW 21.9 mph 35.7 mph N/A   Mostly Cloudy
1:00 PM 56 °F - 51 °F 79% 29.93 in 12 mi WSW 13.4 mph - -   Partly Cloudy
1:00 PM 57.2 °F - 51.8 °F 82% 29.92 in 6.2 mi WSW 19.6 mph 33.4 mph N/A   Mostly Cloudy
1:30 PM 55.4 °F - 51.8 °F 88% 29.92 in 6.2 mi WSW 20.7 mph - N/A   Mostly Cloudy
2:00 PM 55.4 °F - 51.8 °F 88% 29.92 in 6.2 mi WSW 17.3 mph - N/A   Mostly Cloudy
2:30 PM 55.4 °F - 53.6 °F 94% 29.92 in 6.2 mi WSW 18.4 mph - N/A   Mostly Cloudy
3:00 PM 57.2 °F - 53.6 °F 88% 29.92 in 6.2 mi WSW 19.6 mph - N/A   Mostly Cloudy
3:30 PM 57.2 °F - 53.6 °F 88% 29.92 in 6.2 mi WSW 17.3 mph - N/A   Mostly Cloudy
4:00 PM 57.2 °F - 53.6 °F 88% 29.92 in 6.2 mi WSW 17.3 mph - N/A   Mostly Cloudy
4:30 PM 59.0 °F - 53.6 °F 82% 29.92 in 6.2 mi WSW 19.6 mph - N/A   Scattered Clouds
5:00 PM 57.2 °F - 53.6 °F 88% 29.95 in 6.2 mi WSW 19.6 mph - N/A   Mostly Cloudy
5:30 PM 57.2 °F - 51.8 °F 82% 29.95 in 6.2 mi WSW 16.1 mph - N/A   Mostly Cloudy
6:00 PM 55.4 °F - 51.8 °F 88% 29.95 in 6.2 mi WSW 20.7 mph - N/A   Mostly Cloudy
6:30 PM 55.4 °F - 51.8 °F 88% 29.98 in 6.2 mi West 13.8 mph - N/A   Mostly Cloudy
7:00 PM 55 °F - 51 °F 82% 29.99 in 12 mi West 11.2 mph - -   Mostly Cloudy
7:00 PM 55.4 °F - 51.8 °F 88% 29.98 in 6.2 mi West 10.4 mph - N/A   Mostly Cloudy
7:30 PM 53.6 °F - 51.8 °F 94% 29.98 in 6.2 mi SW 10.4 mph - N/A   Mostly Cloudy
8:00 PM 53.6 °F - 51.8 °F 94% 29.98 in 6.2 mi SW 12.7 mph - N/A Rain Light Rain
8:30 PM 53.6 °F - 53.6 °F 100% 30.01 in 6.2 mi WSW 9.2 mph - N/A Rain Light Rain
9:00 PM 53.6 °F - 53.6 °F 100% 30.01 in 6.2 mi West 6.9 mph - N/A Rain Light Rain
9:30 PM 53.6 °F - 51.8 °F 94% 30.01 in 6.2 mi WSW 10.4 mph - N/A   Mostly Cloudy
10:00 PM 53.6 °F - 51.8 °F 94% 30.04 in 4.3 mi WSW 11.5 mph - N/A Rain Light Rain
10:30 PM 51.8 °F - 51.8 °F 100% 30.04 in 3.7 mi WSW 9.2 mph - N/A Rain Light Rain
11:00 PM 51.8 °F - 51.8 °F 100% 30.04 in 6.2 mi West 11.5 mph - N/A Rain Light Rain
11:30 PM 51.8 °F - 51.8 °F 100% 30.04 in 6.2 mi SW 5.8 mph - N/A   Mostly Cloudy